Location: Beetenbrück
(52.8113°N, 9.5946°E)
Time: 21:51:21
(UTC+00:00)

Cosmos 1125 Rocket - Pass Details

Date: 14 April 2026
Orbit: 752 x 776 km, 74.0° (Epoch: 12 May)

Event Time Altitude Azimuth Distance (km) Brightness Sun altitude
Exits shadow 20:35:04 18° 187° (S) 1,797 5.1 -18.1°
Maximum altitude 20:38:53 63° 110° (ESE) 854 3.4 -18.5°
Drops below altitude 10° 20:44:05 10° 31° (NNE) 2,322 6.2 -19.1°
Sets 20:46:29 0° 28° (NNE) 3,256 7.0 -19.3°
